SCP
0 0 0 0 0 0 0 0 0 0 0 0 0 0 0 0 0 0 0 0 0 0 0 0 0 0 0 0 0 0 0 0 0 0 0 0 0 0 0 0 0 0 0 0
0 0 0 0 0 0 0 0 0 0 0 0 0 0 0 0 0 0 0 0 0 0 0 0 0 0 0 0 0 0 0 0 0 0 0 0 0 0 0 0 0 0 0 0
0 0 0 0 0 0 0 0 0 0 0 0 0 -0 0 0 0 0 0 0 0 0 0 0 0 0 0 0 0 0 0 0 0 0 0 0 0 0 0 0 0 0 0 0
0 0 0 0 0 0 0 0 0 0 0 0 0 -0 -0 0 0 0 0 0 0 0 0 0 0 0 0 0 0 0 0 0 0 0 0 0 0 0 0 0 0 0 0 0
0 0 0 0 0 0 0 0 0 0 0 0 0 0 0 0 0 0 0 0 0 0 0 0 0 0 0 0 0 0 0 0 0 0 0 0 0 0 0 0 0 0 0 0
0 0 0 0 0 0 0 0 0 0 0 0 0 0 0 0 0 0 0 0 0 0 0 0 0 0 0 0 0 0 0 0 0 0 0 0 0 0 0 0 0 0 0 0
0 0 0 0 0 0 0 0 0 0 0 0 0 0 0 0 0 0 0 0 0 0 0 0 0 0 0 0 0 0 0 0 0 0 0 0 0 0 0 0 0 0 0 0
0 0 0 0 0 0 0 0 0 0 0 0 0 0 0 0 0 0 0 0 0 0 0 0 0 0 0 0 0 0 0 0 0 0 0 0 0 0 0 0 0 0 0 0
0 0 0 0 0 0 0 0 0 0 0 0 0 0 0 0 0 0 0 0 0 0 0 0 0 0 0 0 0 0 0 0 0 0 0 0 0 0 0 0 0 0 0 0
0 0 0 0 0 0 0 0 0 0 0 0 0 0 0 0 0 0 0 0 0 0 0 0 0 0 0 0 0 0 0 0 0 0 0 0 0 0 0 0 0 0 0 0
0 0 0 0 0 0 0 0 0 0 0 0 0 0 0 0 0 0 0 0 0 0 0 0 0 0 0 0 0 0 0 0 0 0 0 0 0 0 0 0 0 0 0 0
0 0 0 0 0 0 0 0 0 0 0 0 0 0 0 0 0 0 0 0 0 0 -0 0 0 0 0 0 0 0 0 0 0 0 0 0 0 0 0 0 0 0 0 0
0 0 0 0 0 0 0 0 0 0 0 0 0 0 0 0 0 0 0 0 0 -0 0 0 0 0 0 0 0 0 0 0 0 0 0 0 0 0 0 0 0 0 0 0
0 0 0 0 0 0 0 0 0 0 0 0 0 0 0 0 0 0 0 0 0 0 0 0 -0 0 0 0 0 0 0 0 0 0 0 0 0 0 0 0 0 0 0 0
0 0 0 0 0 0 0 0 0 0 0 0 0 0 0 0 0 0 0 0 0 0 0 0 0 0 0 0 0 0 0 0 0 0 0 0 0 0 0 0 0 0 0 0
0 0 0 0 0 0 0 0 0 0 0 0 0 0 0 0 0 0 0 0 0 -0 0 0 0 0 0 0 0 0 0 0 0 0 0 0 0 0 0 0 0 0 0 0
0 0 0 0 0 0 0 0 0 0 0 0 0 0 0 0 0 0 0 -0 -0 0 0 0 0 0 0 0 0 0 0 0 0 0 0 0 0 0 0 0 0 0 0 0
0 0 0 0 -0 0 0 0 0 0 0 0 0 0 0 0 0 0 0 0 0 0 0 0 0 0 0 0 -0 0 0 0 0 0 0 0 0 0 0 0 0 0 0 0
0 0 0 0 0 0 0 0 0 0 0 0 0 0 0 0 0 0 0 0 0 0 0 0 0 0 0 0 0 0 0 0 0 0 0 0 0 0 0 0 0 0 0 0
0 0 0 0 0 0 0 0 0 0 0 0 0 0 0 0 0 0 0 0 0 0 0 0 0 0 0 0 0 0 0 0 0 0 0 0 0 0 0 0 0 0 0 0
0 0 0 0 0 0 0 0 -0 0 0 0 0 0 0 0 0 0 0 0 0 0 0 0 0 0 0 0 0 0 0 0 0 0 0 0 0 0 0 0 0 0 0 0
0 0 0 0 0 0 0 -0 -0 -0 -0 -0 -0 -0 0 -0 0 -0 -0 0 0 0 0 0 0 0 0 0 0 0 0 0 0 0 0 0 0 0 0 0 0 0 0 0
0 0 0 0 0 -0 -0 -0 -0 -0 -0 -0 -0 -0 -0 -0 -0 -0 -0 -0 -0 -0 -0 -0 0 0 0 0 0 0 0 0 0 0 0 0 0 0 0 0 0 0 0 0
0 0 0 0 0 -0 0 -0 -0 0 -0 -0 -0 -0 -0 -0 -0 -0 -0 -0 -0 -0 -0 -0 -0 -0 -0 -0 -0 0 0 0 0 0 0 0 0 0 0 0 0 0 0 0
0 0 0 0 0 0 0 0 0 0 0 0 -0 -0 -0 -0 -0 0 -0 -0 -0 -0 0 0 0 -0 -0 -0 -0 0 0 0 0 0 0 0 0 0 0 0 0 0 0 0
0 0 0 0 0 0 0 0 0 0 0 0 -0 -0 -0 -0 -0 -0 -0 0 0 -0 -0 0 0 0 0 0 0 0 0 0 0 0 0 0 0 0 0 0 0 0 0 0
Wind_Speed_500mb
14 8 21 42 33 30 6 13 17 19 11 10 20 33 39 59 41 48 72 87 91 92 106 94 91 90 87 88 92 93 91 91 89 90 86 85 87 86 85 80 74 72 67 65
3 19 37 12 11 18 24 39 42 37 39 13 33 45 33 27 55 65 61 84 95 102 111 110 109 102 91 87 91 99 100 97 93 93 92 91 87 88 86 81 79 77 74 70
31 21 22 21 16 22 25 27 36 35 15 11 21 39 26 24 56 75 83 88 100 101 109 112 105 100 87 83 83 95 102 100 96 94 94 94 89 86 87 90 89 86 79 75
16 29 30 16 17 28 32 26 31 26 6 20 1 47 13 14 30 32 61 82 82 96 101 107 106 98 81 77 75 86 99 101 96 96 96 99 99 95 95 96 95 90 83 79
19 9 12 21 44 18 26 10 16 8 9 9 13 15 12 26 22 33 46 66 95 99 95 93 95 85 69 71 73 79 94 101 97 96 96 95 98 93 90 93 92 88 85 82
24 7 10 16 9 15 3 4 7 7 4 21 26 21 2 14 23 15 26 72 79 82 87 99 82 62 59 70 72 80 95 103 98 94 93 93 94 95 94 93 91 89 88 85
5 13 12 15 10 7 8 10 8 7 2 24 18 18 49 12 13 21 29 58 75 77 84 89 78 49 63 68 72 83 93 101 97 93 92 93 94 94 91 90 91 89 88 91
2 31 16 9 23 18 21 22 13 17 23 35 12 17 27 23 25 52 57 69 83 91 88 84 59 51 53 66 75 84 88 96 96 94 92 95 94 94 91 90 90 89 88 86
10 31 3 10 8 19 5 11 35 3 5 5 20 26 24 11 17 17 35 64 71 87 85 68 51 46 48 62 73 75 85 92 92 92 96 98 97 98 94 90 88 88 87 85
10 28 9 6 4 7 16 8 3 1 7 14 14 15 32 29 21 19 22 36 60 69 71 65 55 51 50 53 61 69 79 86 84 86 92 97 101 103 102 97 89 87 84 83
7 10 43 4 14 16 2 7 10 6 10 29 35 21 58 50 13 20 25 45 45 55 53 51 55 50 46 51 52 59 66 76 86 81 87 98 103 107 106 103 99 92 86 82
11 7 19 51 40 9 8 18 23 22 25 23 34 37 59 54 46 12 22 27 42 47 53 51 43 40 45 47 50 52 56 64 72 80 89 96 99 99 104 109 105 98 93 86
14 7 10 7 22 31 25 37 28 32 36 50 43 40 54 45 47 40 40 70 79 64 66 62 42 41 41 43 49 55 56 67 75 84 89 93 98 96 100 105 104 102 98 90
22 22 33 39 37 12 12 20 21 35 33 48 44 52 48 61 54 53 55 74 79 69 69 67 74 84 83 78 80 80 80 81 77 79 88 93 93 94 95 101 104 102 99 92
18 41 55 57 60 57 54 53 49 52 58 57 59 56 45 57 64 56 59 66 48 52 56 63 74 75 84 90 86 83 66 70 78 88 95 96 95 94 94 97 97 96 95 91
12 24 35 50 50 54 57 55 63 71 70 67 67 66 56 67 86 76 79 71 60 63 67 71 77 87 88 91 100 107 108 102 96 98 98 95 98 95 95 95 94 94 91 89
17 16 22 37 29 40 41 55 65 70 66 58 60 65 54 52 52 56 58 45 38 50 58 58 61 73 89 97 97 100 101 93 97 100 96 100 101 100 96 91 91 91 90 87
42 43 28 41 42 58 46 21 39 53 62 63 45 35 32 30 55 50 38 46 53 66 71 75 66 60 65 74 85 90 87 89 85 86 91 91 92 92 88 85 88 88 88 87
39 36 20 24 41 51 49 15 15 13 12 31 28 26 30 73 52 34 52 60 58 67 75 83 84 78 75 72 56 54 58 65 74 76 76 77 77 79 80 84 86 86 82 83
12 23 29 30 39 43 19 31 54 30 20 49 39 40 37 47 28 26 83 85 79 77 77 91 94 90 85 79 73 62 51 49 57 61 64 65 67 70 76 80 81 78 76 79
9 10 18 24 26 17 26 27 48 14 22 51 44 42 42 25 29 67 77 66 61 64 80 85 85 86 79 78 76 72 54 42 39 43 46 50 54 59 65 69 71 73 75 79
13 11 7 10 10 25 68 39 13 24 40 32 33 40 48 60 73 74 75 73 69 71 77 70 83 88 82 67 65 62 60 48 39 34 34 39 46 52 58 60 65 68 73 77
9 9 7 10 14 40 50 21 49 18 27 35 46 69 54 61 63 68 68 68 75 78 81 84 75 86 89 76 56 58 55 56 57 49 47 41 35 44 52 58 63 70 73 79
9 16 7 7 11 29 45 54 35 38 48 62 64 58 66 52 66 69 75 92 90 87 83 75 72 75 83 77 79 58 50 51 61 65 61 55 51 51 51 58 62 69 77 83
14 6 12 19 35 47 41 50 41 43 48 43 51 64 57 45 71 63 75 84 83 79 76 76 74 82 88 81 86 77 66 61 65 70 71 67 67 66 67 68 74 76 83 88
33 33 23 31 45 37 46 54 50 44 34 57 57 59 71 64 68 69 76 82 82 90 86 97 98 88 96 89 85 72 70 71 69 74 76 73 73 76 75 75 76 78 83 81
Wind_Direction_500mb
182 137 214 225 210 231 195 224 233 252 251 199 234 238 248 267 265 250 260 265 263 263 268 264 258 257 257 253 250 244 240 238 230 227 225 226 229 229 230 231 232 233 233 235
103 217 232 250 201 223 240 253 261 267 263 212 260 257 247 252 265 263 248 258 263 265 268 268 265 262 259 257 254 244 238 238 234 229 228 229 231 232 234 234 235 234 234 235
218 224 230 224 232 239 231 236 251 258 298 233 279 272 241 245 252 263 264 260 262 262 265 268 263 263 264 255 246 244 240 237 233 229 226 228 230 232 233 232 233 233 234 235
230 242 225 206 227 224 264 231 255 263 290 273 68 296 196 234 242 252 258 261 259 267 270 269 264 263 257 255 251 242 238 235 231 229 228 228 230 229 231 233 234 233 233 234
245 191 184 214 233 184 256 199 234 205 216 343 207 266 206 205 245 247 257 257 266 270 269 267 266 266 259 251 248 243 235 232 230 229 231 230 232 235 237 237 237 236 237 237
242 199 195 223 215 196 135 69 22 55 99 268 210 211 173 177 214 239 256 260 264 270 270 271 269 265 250 242 237 237 232 228 228 229 232 232 233 235 235 236 237 236 238 238
285 218 220 178 237 161 150 96 297 322 6 243 175 203 257 257 230 215 238 258 268 271 272 267 275 246 235 227 230 233 229 227 226 228 232 233 232 235 238 240 240 239 237 237
235 288 182 182 203 194 204 187 183 205 250 263 112 242 269 221 237 249 255 261 268 266 268 271 264 239 236 226 229 234 230 226 226 229 231 232 233 235 237 240 241 242 243 243
208 266 155 186 169 151 174 196 232 342 82 2 270 275 295 255 266 287 283 283 278 272 273 273 243 233 240 225 232 234 232 228 230 233 233 232 233 234 235 238 240 242 244 244
277 275 198 40 3 269 176 151 37 224 180 234 250 288 274 272 287 298 313 294 308 306 282 265 245 236 233 233 235 239 235 235 234 235 238 239 238 238 238 238 239 241 243 243
199 199 264 72 207 218 232 243 215 204 193 250 260 255 267 282 283 285 297 306 335 334 315 279 251 243 236 236 243 238 238 238 237 237 241 242 242 243 243 243 242 241 244 244
178 168 245 257 257 224 254 245 233 240 247 235 252 250 261 267 273 269 278 281 299 311 321 300 271 255 251 247 245 247 245 246 243 243 244 245 246 247 247 246 245 244 244 244
183 207 246 209 285 262 234 247 230 246 259 254 255 253 258 270 274 253 246 270 279 287 288 297 303 283 262 263 254 248 247 255 247 245 248 248 248 249 250 249 246 244 244 243
221 226 238 256 267 273 242 221 232 236 254 255 251 262 266 271 266 269 266 270 277 285 296 298 293 290 286 284 277 269 261 249 249 258 255 252 251 253 252 250 247 244 243 242
237 249 251 253 257 251 254 261 258 257 254 252 252 252 255 264 269 271 273 275 286 290 285 281 281 279 277 278 275 268 266 272 273 262 255 255 256 254 251 249 247 244 242 241
304 278 281 262 246 248 245 246 255 262 260 260 259 254 255 254 264 276 273 280 288 281 274 272 272 272 267 267 272 273 277 281 274 264 258 256 255 254 250 246 243 240 239 238
267 276 283 274 289 279 259 246 258 259 263 258 257 256 262 269 267 276 293 303 341 6 351 326 309 294 285 279 279 272 271 271 266 261 258 253 251 249 248 244 240 237 236 234
255 262 260 274 284 264 275 248 249 259 265 271 296 328 341 339 316 327 25 33 19 359 349 349 356 346 323 299 288 284 277 270 265 262 257 253 247 246 245 241 237 234 231 228
224 245 265 260 259 272 277 22 346 337 35 9 338 334 1 345 319 55 18 358 345 335 332 331 334 342 343 342 329 304 282 265 260 257 256 252 247 244 241 237 234 231 227 224
318 258 263 271 270 271 35 349 333 303 232 7 352 355 348 353 342 323 325 329 333 333 333 332 330 328 333 343 346 339 316 286 267 256 253 252 248 244 240 237 234 231 228 227
321 316 270 277 278 263 22 10 341 277 328 321 324 347 351 337 321 315 319 323 327 324 325 323 321 321 325 327 330 337 333 321 289 274 270 263 255 245 240 236 232 228 224 221
276 313 331 349 323 254 356 354 352 292 314 326 341 339 330 318 315 313 308 313 317 321 321 321 320 316 315 317 323 320 322 319 315 311 297 277 263 252 243 236 233 226 222 220
274 207 246 210 238 289 308 276 313 327 329 323 321 318 313 313 314 313 315 318 320 320 316 315 313 312 311 311 309 308 310 300 296 292 291 290 278 261 250 240 231 226 222 221
256 251 216 337 251 268 284 294 280 314 312 311 308 309 314 311 314 315 314 315 312 312 315 309 310 306 302 307 301 294 292 292 283 276 267 260 263 267 252 241 236 231 227 223
227 297 240 265 278 278 278 291 301 301 302 293 302 308 309 310 307 308 308 306 305 305 307 304 299 296 296 298 296 291 288 289 288 280 268 263 255 246 240 242 244 237 232 232
240 250 257 262 276 289 284 294 304 300 297 309 309 304 306 308 302 303 300 304 300 304 304 300 302 304 296 292 285 291 294 288 283 277 269 263 255 248 241 235 231 230 235 232
Wind_Speed_850mb
14 8 21 42 33 30 6 13 17 19 11 10 20 33 39 59 41 48 72 87 91 92 106 94 91 90 87 88 92 93 91 91 89 90 86 85 87 86 85 80 74 72 67 65
3 19 37 12 11 18 24 39 42 37 39 13 33 45 33 27 55 65 61 84 95 102 111 110 109 102 91 87 91 99 100 97 93 93 92 91 87 88 86 81 79 77 74 70
31 21 22 21 16 22 25 27 36 35 15 11 21 39 26 24 56 75 83 88 100 101 109 112 105 100 87 83 83 95 102 100 96 94 94 94 89 86 87 90 89 86 79 75
16 29 30 16 17 28 32 26 31 26 6 20 1 47 13 14 30 32 61 82 82 96 101 107 106 98 81 77 75 86 99 101 96 96 96 99 99 95 95 96 95 90 83 79
19 9 12 21 44 18 26 10 16 8 9 9 13 15 12 26 22 33 46 66 95 99 95 93 95 85 69 71 73 79 94 101 97 96 96 95 98 93 90 93 92 88 85 82
24 7 10 16 9 15 3 4 7 7 4 21 26 21 2 14 23 15 26 72 79 82 87 99 82 62 59 70 72 80 95 103 98 94 93 93 94 95 94 93 91 89 88 85
5 13 12 15 10 7 8 10 8 7 2 24 18 18 49 12 13 21 29 58 75 77 84 89 78 49 63 68 72 83 93 101 97 93 92 93 94 94 91 90 91 89 88 91
2 31 16 9 23 18 21 22 13 17 23 35 12 17 27 23 25 52 57 69 83 91 88 84 59 51 53 66 75 84 88 96 96 94 92 95 94 94 91 90 90 89 88 86
10 31 3 10 8 19 5 11 35 3 5 5 20 26 24 11 17 17 35 64 71 87 85 68 51 46 48 62 73 75 85 92 92 92 96 98 97 98 94 90 88 88 87 85
10 28 9 6 4 7 16 8 3 1 7 14 14 15 32 29 21 19 22 36 60 69 71 65 55 51 50 53 61 69 79 86 84 86 92 97 101 103 102 97 89 87 84 83
7 10 43 4 14 16 2 7 10 6 10 29 35 21 58 50 13 20 25 45 45 55 53 51 55 50 46 51 52 59 66 76 86 81 87 98 103 107 106 103 99 92 86 82
11 7 19 51 40 9 8 18 23 22 25 23 34 37 59 54 46 12 22 27 42 47 53 51 43 40 45 47 50 52 56 64 72 80 89 96 99 99 104 109 105 98 93 86
14 7 10 7 22 31 25 37 28 32 36 50 43 40 54 45 47 40 40 70 79 64 66 62 42 41 41 43 49 55 56 67 75 84 89 93 98 96 100 105 104 102 98 90
22 22 33 39 37 12 12 20 21 35 33 48 44 52 48 61 54 53 55 74 79 69 69 67 74 84 83 78 80 80 80 81 77 79 88 93 93 94 95 101 104 102 99 92
18 41 55 57 60 57 54 53 49 52 58 57 59 56 45 57 64 56 59 66 48 52 56 63 74 75 84 90 86 83 66 70 78 88 95 96 95 94 94 97 97 96 95 91
12 24 35 50 50 54 57 55 63 71 70 67 67 66 56 67 86 76 79 71 60 63 67 71 77 87 88 91 100 107 108 102 96 98 98 95 98 95 95 95 94 94 91 89
17 16 22 37 29 40 41 55 65 70 66 58 60 65 54 52 52 56 58 45 38 50 58 58 61 73 89 97 97 100 101 93 97 100 96 100 101 100 96 91 91 91 90 87
42 43 28 41 42 58 46 21 39 53 62 63 45 35 32 30 55 50 38 46 53 66 71 75 66 60 65 74 85 90 87 89 85 86 91 91 92 92 88 85 88 88 88 87
39 36 20 24 41 51 49 15 15 13 12 31 28 26 30 73 52 34 52 60 58 67 75 83 84 78 75 72 56 54 58 65 74 76 76 77 77 79 80 84 86 86 82 83
12 23 29 30 39 43 19 31 54 30 20 49 39 40 37 47 28 26 83 85 79 77 77 91 94 90 85 79 73 62 51 49 57 61 64 65 67 70 76 80 81 78 76 79
9 10 18 24 26 17 26 27 48 14 22 51 44 42 42 25 29 67 77 66 61 64 80 85 85 86 79 78 76 72 54 42 39 43 46 50 54 59 65 69 71 73 75 79
13 11 7 10 10 25 68 39 13 24 40 32 33 40 48 60 73 74 75 73 69 71 77 70 83 88 82 67 65 62 60 48 39 34 34 39 46 52 58 60 65 68 73 77
9 9 7 10 14 40 50 21 49 18 27 35 46 69 54 61 63 68 68 68 75 78 81 84 75 86 89 76 56 58 55 56 57 49 47 41 35 44 52 58 63 70 73 79
9 16 7 7 11 29 45 54 35 38 48 62 64 58 66 52 66 69 75 92 90 87 83 75 72 75 83 77 79 58 50 51 61 65 61 55 51 51 51 58 62 69 77 83
14 6 12 19 35 47 41 50 41 43 48 43 51 64 57 45 71 63 75 84 83 79 76 76 74 82 88 81 86 77 66 61 65 70 71 67 67 66 67 68 74 76 83 88
33 33 23 31 45 37 46 54 50 44 34 57 57 59 71 64 68 69 76 82 82 90 86 97 98 88 96 89 85 72 70 71 69 74 76 73 73 76 75 75 76 78 83 81
Wind_Direction_850mb
182 137 214 225 210 231 195 224 233 252 251 199 234 238 248 267 265 250 260 265 263 263 268 264 258 257 257 253 250 244 240 238 230 227 225 226 229 229 230 231 232 233 233 235
103 217 232 250 201 223 240 253 261 267 263 212 260 257 247 252 265 263 248 258 263 265 268 268 265 262 259 257 254 244 238 238 234 229 228 229 231 232 234 234 235 234 234 235
218 224 230 224 232 239 231 236 251 258 298 233 279 272 241 245 252 263 264 260 262 262 265 268 263 263 264 255 246 244 240 237 233 229 226 228 230 232 233 232 233 233 234 235
230 242 225 206 227 224 264 231 255 263 290 273 68 296 196 234 242 252 258 261 259 267 270 269 264 263 257 255 251 242 238 235 231 229 228 228 230 229 231 233 234 233 233 234
245 191 184 214 233 184 256 199 234 205 216 343 207 266 206 205 245 247 257 257 266 270 269 267 266 266 259 251 248 243 235 232 230 229 231 230 232 235 237 237 237 236 237 237
242 199 195 223 215 196 135 69 22 55 99 268 210 211 173 177 214 239 256 260 264 270 270 271 269 265 250 242 237 237 232 228 228 229 232 232 233 235 235 236 237 236 238 238
285 218 220 178 237 161 150 96 297 322 6 243 175 203 257 257 230 215 238 258 268 271 272 267 275 246 235 227 230 233 229 227 226 228 232 233 232 235 238 240 240 239 237 237
235 288 182 182 203 194 204 187 183 205 250 263 112 242 269 221 237 249 255 261 268 266 268 271 264 239 236 226 229 234 230 226 226 229 231 232 233 235 237 240 241 242 243 243
208 266 155 186 169 151 174 196 232 342 82 2 270 275 295 255 266 287 283 283 278 272 273 273 243 233 240 225 232 234 232 228 230 233 233 232 233 234 235 238 240 242 244 244
277 275 198 40 3 269 176 151 37 224 180 234 250 288 274 272 287 298 313 294 308 306 282 265 245 236 233 233 235 239 235 235 234 235 238 239 238 238 238 238 239 241 243 243
199 199 264 72 207 218 232 243 215 204 193 250 260 255 267 282 283 285 297 306 335 334 315 279 251 243 236 236 243 238 238 238 237 237 241 242 242 243 243 243 242 241 244 244
178 168 245 257 257 224 254 245 233 240 247 235 252 250 261 267 273 269 278 281 299 311 321 300 271 255 251 247 245 247 245 246 243 243 244 245 246 247 247 246 245 244 244 244
183 207 246 209 285 262 234 247 230 246 259 254 255 253 258 270 274 253 246 270 279 287 288 297 303 283 262 263 254 248 247 255 247 245 248 248 248 249 250 249 246 244 244 243
221 226 238 256 267 273 242 221 232 236 254 255 251 262 266 271 266 269 266 270 277 285 296 298 293 290 286 284 277 269 261 249 249 258 255 252 251 253 252 250 247 244 243 242
237 249 251 253 257 251 254 261 258 257 254 252 252 252 255 264 269 271 273 275 286 290 285 281 281 279 277 278 275 268 266 272 273 262 255 255 256 254 251 249 247 244 242 241
304 278 281 262 246 248 245 246 255 262 260 260 259 254 255 254 264 276 273 280 288 281 274 272 272 272 267 267 272 273 277 281 274 264 258 256 255 254 250 246 243 240 239 238
267 276 283 274 289 279 259 246 258 259 263 258 257 256 262 269 267 276 293 303 341 6 351 326 309 294 285 279 279 272 271 271 266 261 258 253 251 249 248 244 240 237 236 234
255 262 260 274 284 264 275 248 249 259 265 271 296 328 341 339 316 327 25 33 19 359 349 349 356 346 323 299 288 284 277 270 265 262 257 253 247 246 245 241 237 234 231 228
224 245 265 260 259 272 277 22 346 337 35 9 338 334 1 345 319 55 18 358 345 335 332 331 334 342 343 342 329 304 282 265 260 257 256 252 247 244 241 237 234 231 227 224
318 258 263 271 270 271 35 349 333 303 232 7 352 355 348 353 342 323 325 329 333 333 333 332 330 328 333 343 346 339 316 286 267 256 253 252 248 244 240 237 234 231 228 227
321 316 270 277 278 263 22 10 341 277 328 321 324 347 351 337 321 315 319 323 327 324 325 323 321 321 325 327 330 337 333 321 289 274 270 263 255 245 240 236 232 228 224 221
276 313 331 349 323 254 356 354 352 292 314 326 341 339 330 318 315 313 308 313 317 321 321 321 320 316 315 317 323 320 322 319 315 311 297 277 263 252 243 236 233 226 222 220
274 207 246 210 238 289 308 276 313 327 329 323 321 318 313 313 314 313 315 318 320 320 316 315 313 312 311 311 309 308 310 300 296 292 291 290 278 261 250 240 231 226 222 221
256 251 216 337 251 268 284 294 280 314 312 311 308 309 314 311 314 315 314 315 312 312 315 309 310 306 302 307 301 294 292 292 283 276 267 260 263 267 252 241 236 231 227 223
227 297 240 265 278 278 278 291 301 301 302 293 302 308 309 310 307 308 308 306 305 305 307 304 299 296 296 298 296 291 288 289 288 280 268 263 255 246 240 242 244 237 232 232
240 250 257 262 276 289 284 294 304 300 297 309 309 304 306 308 302 303 300 304 300 304 304 300 302 304 296 292 285 291 294 288 283 277 269 263 255 248 241 235 231 230 235 232